Theta_e
290 290 290 289 288 289 288 289 284 287 288 292 296 298 299 300 300 299 299 300 301 302 303 304 306 308 307 308 311 313 313 315 318 321 321 320 320 321 322 323 324 324 325 326
286 289 289 287 289 290 290 290 290 290 289 297 299 298 298 298 298 297 298 299 300 301 303 303 304 306 306 306 306 308 309 312 313 315 317 319 319 320 322 323 325 325 325 326
282 287 288 285 289 290 292 293 292 287 293 297 295 295 295 296 296 296 298 299 300 301 302 304 304 306 305 306 307 306 306 307 308 312 313 315 317 318 321 323 325 325 324 322
284 287 279 289 295 294 291 292 294 294 294 294 294 295 296 297 297 297 298 299 300 301 303 304 305 305 307 307 306 306 306 306 307 308 310 314 315 317 320 322 322 320 320 320
284 284 287 289 291 291 288 288 294 291 292 293 295 295 295 298 298 298 299 301 302 303 306 306 305 305 305 305 305 305 304 306 307 307 308 310 313 317 319 319 319 318 318 318
285 281 279 288 293 296 293 284 293 292 291 292 292 285 290 296 298 298 299 298 301 301 302 302 303 305 306 304 304 304 305 305 307 308 308 309 312 313 317 317 317 315 316 317
285 283 287 293 294 295 282 285 293 293 292 291 289 291 294 297 296 298 296 299 300 298 297 299 301 301 300 301 303 304 305 305 306 307 308 310 313 314 315 314 314 315 314 316
286 282 280 295 293 287 291 294 294 293 293 292 293 294 294 294 294 295 295 296 297 295 294 296 298 297 296 297 301 302 304 304 305 307 307 306 311 312 312 313 312 313 313 313
287 289 294 297 295 296 296 294 293 293 294 294 293 292 292 292 293 293 293 294 294 292 292 293 294 295 294 296 298 300 302 304 304 306 305 306 307 308 307 311 309 309 308 309
289 292 294 295 297 297 296 295 295 296 295 294 291 291 291 291 291 291 292 290 291 291 290 291 293 293 293 295 297 297 299 302 303 303 304 305 305 306 307 308 308 308 308 308
289 293 294 295 295 296 296 296 296 296 295 293 292 291 290 289 289 289 289 290 291 291 292 293 295 296 295 295 295 296 297 298 301 301 301 303 305 307 307 312 309 308 309 309
288 294 291 292 295 297 295 295 295 293 293 293 292 289 289 287 289 289 290 292 292 293 294 296 297 296 297 297 295 295 295 297 298 299 299 300 303 305 297 299 298 297 299 306
291 295 294 295 296 297 295 295 295 295 294 292 291 289 287 286 290 292 291 292 293 294 296 298 296 296 298 298 296 295 295 297 298 297 299 300 303 303 303 301 295 295 295 297
295 294 292 295 293 296 296 296 296 295 294 293 292 291 290 290 291 291 291 293 294 295 297 298 297 295 296 296 296 295 296 295 298 298 299 301 303 304 305 305 304 306 296 297
294 295 294 295 295 295 296 295 293 292 292 291 291 290 289 289 288 289 292 294 293 294 295 295 298 297 298 298 297 297 297 299 301 300 301 302 305 305 305 306 306 307 309 297
293 293 294 292 292 293 294 293 291 292 292 291 290 290 290 290 289 289 291 293 290 291 293 292 295 299 300 299 297 298 300 296 298 303 304 304 305 305 306 307 307 308 308 309
289 289 291 290 291 291 293 293 293 292 292 291 291 291 290 290 289 289 290 292 290 292 291 291 293 295 301 302 299 300 302 302 298 304 305 305 306 306 308 307 308 307 308 309
293 292 292 291 290 291 292 293 293 292 291 292 292 291 289 289 288 288 289 291 290 290 289 290 292 297 301 304 305 305 305 305 305 305 306 305 307 308 308 306 305 308 309 307
292 291 292 292 292 292 292 292 293 293 293 292 291 290 290 290 289 288 289 290 287 285 286 290 291 298 303 302 301 307 306 306 307 306 306 302 308 309 306 306 310 311 311 312
291 292 291 292 293 292 292 293 293 292 293 292 291 290 289 289 289 289 289 288 286 286 289 289 290 293 303 304 296 304 305 305 306 307 308 310 311 309 309 302 311 313 314 314
291 291 290 290 291 292 293 293 292 290 292 291 290 289 289 290 290 289 287 284 286 287 289 289 288 289 298 304 303 309 310 307 305 305 306 308 310 311 311 314 313 315 316 314
291 290 289 289 290 291 292 293 292 291 291 290 290 290 289 289 289 288 289 285 287 286 288 287 287 286 291 295 305 305 306 306 306 307 307 309 309 309 310 312 313 314 312 311
291 290 289 288 288 289 291 291 291 290 290 290 289 289 289 289 290 287 285 287 286 285 287 286 285 286 288 295 297 300 302 303 302 303 304 303 303 303 303 304 306 308 308 311
290 290 289 290 289 288 286 288 290 290 290 290 290 291 290 288 289 290 291 288 285 284 285 285 284 285 287 291 292 294 294 297 300 301 301 295 300 300 301 299 299 300 299 299
290 289 289 288 287 286 287 288 288 288 289 289 289 290 291 291 289 290 290 290 287 285 284 284 284 284 286 288 289 289 291 292 293 297 297 298 297 297 298 299 298 297 297 297
289 289 288 288 287 287 286 287 286 287 287 287 289 290 290 290 290 291 289 288 289 287 285 284 283 284 284 285 286 287 288 290 290 292 293 295 295 294 295 296 295 294 294 294
289 288 288 287 287 287 286 285 285 284 286 286 287 289 289 290 289 289 287 288 288 288 287 287 285 283 283 283 283 285 286 287 287 288 290 291 291 291 291 291 292 294 293 292
Wind_Speed
11 12 12 15 17 16 17 18 17 22 23 23 21 17 13 14 15 17 19 20 20 17 13 12 11 6 8 7 7 7 5 6 10 10 10 10 10 12 11 11 10 11 11 10
10 12 13 15 16 16 17 17 20 20 22 17 12 17 19 19 19 22 22 23 22 20 17 13 12 10 9 9 8 9 8 6 4 6 9 10 12 12 12 13 12 12 12 12
5 3 11 14 4 3 5 7 9 15 20 14 20 18 19 22 23 26 26 22 20 20 18 16 13 11 11 11 11 10 9 9 7 5 7 9 11 13 13 14 13 12 11 10
6 8 6 5 3 3 9 13 14 16 18 13 17 22 23 22 24 24 23 23 22 20 20 20 20 18 16 15 15 15 15 12 10 9 7 7 10 12 13 12 13 12 10 9
4 4 11 4 2 5 8 16 17 9 14 21 24 26 25 21 21 21 24 24 24 22 22 21 22 22 21 20 18 17 18 16 13 12 11 9 10 11 11 11 11 11 11 11
3 4 5 3 3 9 8 15 8 14 19 25 24 18 17 21 24 27 22 26 19 21 20 21 22 22 22 23 22 23 20 18 17 15 15 13 13 12 10 10 10 9 10 10
6 4 6 1 9 8 7 9 21 19 22 23 20 17 27 28 24 22 24 25 22 22 23 25 21 20 23 23 25 22 21 20 19 18 17 15 12 12 11 12 11 12 12 11
2 4 5 5 6 7 13 16 20 22 21 22 24 25 27 27 26 25 25 25 22 20 22 22 21 19 24 25 22 22 23 22 21 18 16 13 15 13 14 13 13 13 13 12
5 4 3 7 10 12 10 18 18 21 22 24 26 26 27 26 25 24 25 21 19 18 20 20 19 19 23 23 19 23 22 22 21 20 19 17 16 15 14 13 13 13 13 13
5 1 9 15 12 13 18 17 21 20 24 24 27 28 28 24 24 23 21 21 19 18 18 19 18 20 21 22 19 20 21 19 16 16 17 17 14 14 13 13 13 14 13 13
8 12 15 4 17 19 22 20 21 22 23 26 27 26 26 24 24 20 21 20 17 17 16 19 18 19 20 20 19 17 17 16 16 13 14 13 14 13 14 14 13 13 13 11
4 11 9 17 20 21 19 21 21 23 27 28 24 25 24 21 19 18 18 18 18 18 18 17 12 15 17 18 18 15 14 12 12 12 12 12 12 12 6 8 13 10 9 11
6 12 14 18 18 18 20 21 21 21 25 27 24 20 19 21 16 22 16 17 17 17 18 14 12 13 12 9 13 13 11 10 7 8 7 10 12 13 14 6 3 12 13 14
8 10 10 10 15 20 19 19 21 20 21 21 20 21 20 19 19 17 17 17 16 16 13 15 10 11 7 7 9 10 9 11 10 10 12 9 9 9 7 8 10 10 8 11
8 10 13 15 17 18 17 17 20 22 23 23 22 22 22 23 21 20 18 16 16 14 14 14 13 8 6 5 7 8 8 4 10 7 8 7 7 8 7 8 11 10 10 7
12 12 13 15 17 17 19 20 18 22 23 23 22 24 23 20 18 18 17 17 18 15 15 15 13 13 5 5 8 5 9 11 7 7 8 8 8 8 8 9 7 7 7 9
12 15 17 16 16 17 18 17 16 20 21 22 23 23 21 21 19 20 20 17 16 13 14 14 14 13 7 5 9 4 6 8 5 4 6 6 6 6 6 7 7 7 8 8
9 11 12 14 14 14 15 17 17 18 19 22 21 21 21 22 21 21 21 17 17 17 21 20 19 11 4 3 6 6 7 8 6 6 6 8 8 8 8 7 7 9 7 5
10 12 14 14 13 12 12 14 17 17 18 19 21 21 19 19 20 18 20 20 24 25 26 22 24 13 4 5 3 1 5 6 7 7 7 6 6 6 7 7 9 8 7 6
10 12 13 13 12 12 12 13 16 16 18 18 19 21 23 23 23 21 20 16 18 16 19 22 22 19 16 7 8 4 4 5 6 6 7 7 7 9 8 8 7 6 6 5
9 11 14 14 12 13 14 13 15 16 18 19 18 20 20 19 21 20 23 18 24 27 22 26 20 17 12 11 3 2 3 8 8 6 6 7 7 5 6 7 8 7 5 5
8 10 13 13 12 12 13 14 14 15 15 17 18 18 19 20 21 18 15 16 15 31 17 15 16 24 16 19 12 12 10 9 7 5 6 5 5 5 3 6 6 5 6 6
7 9 10 12 13 12 12 13 14 15 15 14 16 18 16 12 12 15 18 23 17 22 14 15 23 25 21 14 13 13 13 12 10 9 8 7 6 5 5 5 6 5 6 6
7 8 9 9 10 11 15 15 14 15 14 13 14 14 14 12 11 11 12 17 26 23 16 18 21 24 20 13 13 13 12 12 10 9 8 8 6 5 5 5 6 5 5 6
6 7 10 11 12 10 12 12 10 12 14 14 14 13 16 12 10 12 12 14 22 18 15 21 25 23 14 14 14 13 12 11 11 9 9 8 7 6 6 5 5 6 6 5
8 7 7 9 8 8 9 9 9 10 10 11 11 11 11 10 11 11 13 17 16 19 13 13 14 15 14 14 14 14 12 12 12 11 10 9 8 7 7 6 6 6 6 6
5 6 6 6 7 7 8 9 9 10 11 11 10 12 12 11 12 13 17 15 14 14 14 13 12 15 14 14 13 13 12 11 13 11 10 9 9 7 7 6 6 6 6 6
Wind_Direction
256 267 264 270 273 264 250 257 256 278 287 301 311 314 316 307 307 312 314 317 319 321 325 325 320 332 345 8 354 341 279 219 214 213 206 200 208 189 185 188 194 202 196 192
279 274 277 278 271 266 262 266 265 274 285 281 307 314 309 310 312 310 308 309 310 309 313 318 307 299 312 316 343 328 341 344 279 242 226 211 205 206 187 183 181 182 193 181
274 313 305 276 331 255 251 260 279 281 297 320 308 315 310 308 304 300 297 298 299 298 297 301 296 286 286 297 301 288 299 302 302 292 232 218 212 204 197 184 173 184 187 184
285 300 245 64 48 316 309 283 283 274 300 308 306 306 304 300 294 293 296 300 298 295 290 290 290 279 275 269 275 279 278 273 277 275 260 220 204 196 190 188 176 178 186 189
263 256 304 164 21 3 331 293 292 303 313 313 313 309 292 299 301 297 297 296 290 288 282 282 278 279 276 274 269 259 252 253 247 243 240 227 223 200 193 188 186 183 189 197
193 291 288 73 296 329 305 287 100 328 315 312 307 289 295 308 296 293 291 290 281 290 278 277 276 276 268 263 260 255 249 245 243 241 238 226 221 221 206 201 204 202 212 218
261 284 270 78 336 319 287 337 323 316 310 301 294 285 295 295 293 284 298 276 284 277 275 273 270 272 263 261 253 249 248 241 237 236 236 233 225 213 212 207 222 219 224 229
262 253 276 30 341 335 319 307 310 304 299 297 295 297 300 298 292 294 293 289 279 277 275 272 269 261 256 252 253 253 252 239 236 229 227 226 226 222 220 216 215 223 228 232
226 272 18 319 296 307 312 312 305 304 308 303 302 305 302 303 302 301 297 294 288 279 272 267 263 256 258 254 246 245 239 235 235 232 223 222 229 224 226 218 220 220 227 230
321 41 319 311 318 321 323 310 309 306 305 307 310 310 307 308 304 306 303 299 293 286 276 269 258 252 246 252 244 233 236 231 223 218 216 220 220 220 219 217 215 225 226 226
272 291 320 259 329 319 318 313 315 314 313 312 313 311 308 308 306 305 302 298 295 290 283 277 270 256 241 232 231 230 224 223 217 205 205 212 221 220 215 216 215 219 216 216
286 324 295 296 313 318 314 319 322 318 315 318 318 313 309 306 305 302 304 309 305 304 303 303 307 294 269 223 210 208 213 208 212 216 207 202 208 214 215 230 170 206 197 209
280 304 298 294 304 316 320 320 317 314 314 318 320 316 314 309 314 322 316 310 316 318 314 325 332 337 354 152 175 187 199 196 196 203 198 201 206 211 214 178 170 195 198 194
298 317 306 316 318 321 323 319 316 318 317 324 324 325 325 324 327 331 332 326 327 322 335 333 0 8 34 116 157 175 171 189 188 192 196 191 171 174 183 184 192 203 205 216
326 323 307 315 318 324 327 330 331 328 328 332 333 332 335 337 338 333 333 335 337 337 353 349 353 29 51 94 138 153 163 151 160 176 191 185 181 182 185 203 219 220 212 180
318 318 325 327 328 329 335 341 333 330 332 335 339 339 335 335 333 336 339 349 349 347 353 349 352 358 61 104 130 172 151 168 191 165 163 170 172 178 190 200 201 205 196 206
333 334 333 333 334 336 341 339 337 336 332 337 340 338 337 343 345 353 355 356 344 340 352 348 346 337 326 94 163 167 142 169 181 163 171 175 174 180 183 182 188 195 209 209
334 328 334 335 338 340 342 341 343 342 338 337 339 344 345 354 353 348 349 357 357 4 5 355 345 331 264 147 147 137 159 167 168 157 169 187 198 193 195 194 207 212 216 199
357 348 348 349 348 345 344 346 348 347 346 345 347 350 348 351 354 353 354 8 11 3 346 343 345 356 248 197 214 180 158 174 188 192 195 191 201 187 191 194 217 206 210 209
4 1 1 355 358 357 351 352 354 354 358 355 353 352 356 358 356 356 2 16 13 356 341 348 355 0 358 187 179 229 210 205 199 203 208 206 200 190 190 207 222 206 206 213
5 2 0 2 358 1 2 359 1 360 358 3 1 358 353 353 358 358 11 7 354 353 355 1 3 356 353 12 106 358 123 193 206 212 216 214 203 211 199 200 199 204 194 142
7 5 4 6 2 358 4 6 8 5 2 4 3 1 360 359 3 6 13 7 348 355 357 2 360 354 354 8 26 31 28 33 43 50 56 74 157 165 161 170 167 162 144 124
27 14 7 10 8 2 3 7 10 10 5 3 2 5 3 0 2 360 0 354 356 350 2 3 357 3 6 17 18 21 22 27 31 32 42 54 67 79 85 89 109 127 136 155
34 20 13 6 6 15 19 10 14 13 12 9 7 4 3 359 5 9 358 351 356 0 5 2 6 6 15 17 16 18 17 13 15 25 37 42 54 64 67 89 91 90 95 90
38 26 23 19 18 13 8 8 14 16 13 13 11 6 9 7 4 358 357 1 6 6 5 4 8 9 15 14 14 15 16 17 12 13 24 29 27 39 58 68 73 90 88 84
34 30 24 21 13 9 8 8 17 18 10 13 17 8 3 1 0 5 4 5 8 6 11 5 8 9 10 11 11 12 12 13 12 14 13 22 36 36 36 54 62 68 79 87
47 22 22 24 20 13 14 14 12 13 12 3 4 8 6 5 1 359 11 8 7 8 8 8 10 13 9 7 8 8 7 10 18 12 11 12 17 20 32 37 47 67 68 65